STARLINK-37161

Last updated on Sun Apr 12 2026 00:02:10 GMT+0000 (Coordinated Universal Time)

1 68565U 26070Z 26101.50002315 -.01159092 42489-3 -24731-2 0 9999 2 68565 53.1580 220.1673 0000957 54.0755 166.1769 15.97989760 2652
UTC large
Height (km)
Speed (km/s)
/
Latitude / Longitude
Inclination (degrees)
Orbital Period (minutes)
Azimuth
Elevation
Range (km)
Doppler Factor

Next 0 passes for location: London (51.5072 / 0.1276)

Sorry there are no passes over London.
STARLINK-37161